Find Starlink 1494

NORAD ID: 45760 Int'l Des: 2020-038 Owner: SPXS Country: US Constellation: starlink operational
LEOCIRCULAR

リアルタイム位置

3D地球を読み込み中...

Starlink 1494について

説明を読み込み中...

次回通過

Passes for default location (London). Set your location on the main map for personalized predictions.

高度履歴

Loading altitude history...

軌道要素

1 45760U 20038AG 26126.00002315 .00206288 26533-4 68916-3 0 9995
2 45760 53.0421 223.6420 0005413 325.9715 241.4715 15.89812519 5753
Epoch: May 6, 2026 • Age: 5 hours

現在のステータス

高度 300.9 km
速度 7.73 km/s
衛星直下点 18.47°N, 66.04°W
打ち上げ日 Jun 13, 2020
運用期間 5.8 years
タイプ internet

技術仕様

分類 Payload
質量 260.00 kg
乾燥質量 248.00 kg
総質量 260.00 kg
長さ 0.20 m
直径 2.80 m
スパン 9.00 m
形状 Box + pan
製造者 SPXS
バスタイプ Starlink
フェーズステータス In Orbit
所有者/国 SPXS/US

Most Searched